Skip Page Navigation
NASA JPL Caltech
NASA Logo - Jet Propulsion Laboratory + View the NASA Portal
+ Center for Near-Earth Object Studies
JPL Home Earth Solar System Stars & Galaxies Technology
JPL Solar System Dynamics
BODIES ORBITS EPHEMERIDES TOOLS PHYSICAL DATA DISCOVERY FAQ SITE MAP
IMPORTANT: The SSD Announcement email list is now available. Major changes are coming in the near future, including possible hostname and/or URL changes. To be notified of such changes, subscribe to this email list.

Please visit this page for more details.


JPL Small-Body Database Browser
Search: [ help ]  
35264 (1996 NM5)
Classification: Main-belt Asteroid          SPK-ID: 2035264
Ephemeris | Orbit Diagram | Orbital Elements | Mission Design | Physical Parameters | Discovery Circumstances | Close-Approach Data ]

[ show orbit diagram ]
Orbital Elements at Epoch 2458600.5 (2019-Apr-27.0) TDB
Reference: JPL 28 (heliocentric ecliptic J2000)
 Element Value Uncertainty (1-sigma)   Units 
e .1259736663798496 4.1152e-08  
a 2.337516631505282 1.0997e-08 au
q 2.043051091210686 9.4487e-08 au
i 6.483303322275313 4.72e-06 deg
node 319.4371304098064 3.7388e-05 deg
peri 336.4190537148303 4.2268e-05 deg
M 150.0257964804478 2.106e-05 deg
tp 2458056.506223086333
(2017-Oct-30.00622309)
7.5745e-05 TDB
period 1305.360573202775
3.57
9.2121e-06
2.522e-08
d
yr
n .275785868970073 1.9463e-09 deg/d
Q 2.631982171799879 1.2383e-08 au
  Orbit Determination Parameters
   # obs. used (total)      1212  
   data-arc span      10250 days (28.06 yr)  
   first obs. used      1991-01-11  
   last obs. used      2019-02-03  
   planetary ephem.      DE431  
   SB-pert. ephem.      SB431-N16  
   condition code      0  
   norm. resid. RMS      .54715  
   source      ORB  
   producer      Otto Matic  
   solution date      2019-Jul-13 01:46:13  

Additional Information
 Earth MOID = 1.02842 au 
 Jupiter MOID = 2.5603 au 
 T_jup = 3.547 
[ show covariance matrix ]

Ephemeris | Orbit Diagram | Orbital Elements | Mission Design | Physical Parameters | Discovery Circumstances | Close-Approach Data ]

Physical Parameter Table
Parameter Symbol Value Units Sigma Reference Notes
absolute magnitude H 14.7   n/a MPO358954  

35264 (1996 NM5)          Discovered 1996-Jul-14 by Elst, E. W. at La Silla
Reference: 20020227/Numbers.arcLast Updated: 2004-04-19

[ show close-approach data ]
Alternate Designations
 1996 NM5 = 1978 NJ4 = 1999 KZ19 = 2000 RD46 
Ephemeris | Orbit Diagram | Orbital Elements | Mission Design | Physical Parameters | Discovery Circumstances | Close-Approach Data ]
ABOUT SSD CREDITS/AWARDS PRIVACY/COPYRIGHT GLOSSARY LINKS
FirstGov 2019-Oct-21 23:49 UT
(server date/time)  
NASA Home Page
Site Manager:   Ryan S. Park
Webmaster  Alan B. Chamberlin